#timestamp,LO_Frequency,Hit,StdDev 
1598326875.3,286047033.9,P
1598326895.2,286047034.6,P
1598326915.0,286047033.9,P
1598326915.9,286047033.9,Y
1598326935.8,286046998.7,P
1598326955.6,286046998.7,N
1598326975.4,286047000.6,N
1598326995.3,286046999.8,N
1598327015.1,286047002.5,N
1598327035.9,286047003.6,N
1598327055.7,286047003.5,N
1598327075.5,286047003.2,N
1598327095.4,286047003.8,N
1598327115.2,286047003.4,N
1598327135.0,286047003.0,N
1598327135.9,286047003.0,N
1598327155.8,286047003.0,N
1598327175.6,286047003.3,N
1598327195.5,286047004.8,N
1598327215.3,286047007.2,N
1598327235.1,286047006.2,N
1598327255.9,286047009.2,N
1598327275.7,286047004.9,N
1598327295.5,286047006.1,N
1598327315.4,286047010.3,N
1598327335.2,286047010.7,N
1598327355.1,286047010.0,N
1598327356.0,286047010.0,N
1598327375.8,286047010.2,N
1598327395.6,286047010.3,N
1598327415.5,286047010.4,N
1598327435.3,286047010.7,N
1598327455.1,286047009.5,N
1598327475.9,286047009.3,N
1598327495.7,286047009.3,N
1598327515.6,286047011.6,Y
1598327535.4,286047005.3,P
1598327555.2,286047006.0,P
1598327575.1,286047007.2,P
1598327576.0,286047007.2,Y
1598327595.8,286047002.2,P
1598327615.7,286047002.1,N
1598327635.5,286047002.0,N
1598327655.3,286047001.3,N
1598327675.2,286047000.1,N
1598327695.0,286047001.5,N
1598327695.9,286047001.5,N
1598327715.8,286047001.3,N
1598327735.6,286047002.6,N
1598327755.4,286047000.6,N
1598327775.3,286047002.4,N
1598327795.1,286047002.8,N
1598327815.8,286047003.9,N
1598327835.7,286047001.3,N
1598327855.5,286047001.3,N
1598327875.4,286047001.6,N
1598327895.2,286047002.7,N
1598327915.0,286046999.7,N
1598327915.9,286046999.7,N
1598327935.8,286047000.3,N
1598327955.6,286047001.6,N
1598327975.5,286047002.7,N
1598327995.3,286047000.4,N
